TimeCST,TemperatureF,Dew PointF,Humidity,Sea Level PressureIn,VisibilityMPH,Wind Direction,Wind SpeedMPH,Gust SpeedMPH,PrecipitationIn,Events,Conditions,WindDirDegrees,DateUTC
12:55 AM,30.9,28.8,92,30.39,10.0,ENE,2.3,-,N/A,,Clear,60,2013-01-19 06:55:00
1:55 AM,31.6,29.5,92,30.38,10.0,Calm,Calm,-,N/A,,Clear,0,2013-01-19 07:55:00
2:55 AM,30.0,27.7,91,30.39,10.0,NNW,2.3,-,N/A,,Clear,330,2013-01-19 08:55:00
3:55 AM,30.6,28.0,90,30.40,10.0,NNW,3.5,-,N/A,,Clear,340,2013-01-19 09:55:00
4:55 AM,30.6,28.2,91,30.38,10.0,Calm,Calm,-,N/A,,Clear,0,2013-01-19 10:55:00
5:55 AM,31.1,28.9,92,30.39,6.0,Calm,Calm,-,N/A,,Clear,0,2013-01-19 11:55:00
6:55 AM,29.8,27.9,92,30.40,5.0,North,4.6,-,N/A,,Clear,350,2013-01-19 12:55:00
7:55 AM,38.1,32.2,79,30.41,8.0,NNE,4.6,-,N/A,,Clear,20,2013-01-19 13:55:00
8:55 AM,45.7,33.1,61,30.43,10.0,Variable,4.6,-,N/A,,Clear,0,2013-01-19 14:55:00
9:55 AM,52.2,31.1,45,30.42,10.0,NE,10.4,-,N/A,,Partly Cloudy,50,2013-01-19 15:55:00
10:55 AM,53.1,34.5,49,30.39,10.0,NNE,4.6,-,N/A,,Overcast,30,2013-01-19 16:55:00
11:55 AM,57.4,37.6,48,30.34,10.0,NNE,3.5,-,N/A,,Scattered Clouds,20,2013-01-19 17:55:00
12:55 PM,59.2,41.4,52,30.31,10.0,NNW,5.8,-,N/A,,Overcast,340,2013-01-19 18:55:00
1:55 PM,60.3,41.5,50,30.28,10.0,Calm,Calm,-,N/A,,Overcast,0,2013-01-19 19:55:00
2:35 PM,60.8,42.8,52,30.25,10.0,NNW,6.9,-,N/A,,Mostly Cloudy,340,2013-01-19 20:35:00
2:55 PM,61.0,42.4,51,30.28,10.0,North,5.8,-,N/A,,Mostly Cloudy,10,2013-01-19 20:55:00
3:55 PM,60.3,42.8,53,30.29,10.0,NE,4.6,-,N/A,,Mostly Cloudy,40,2013-01-19 21:55:00
4:55 PM,58.6,43.7,58,30.29,10.0,Calm,Calm,-,N/A,,Mostly Cloudy,0,2013-01-19 22:55:00
5:55 PM,56.5,45.3,66,30.27,10.0,Calm,Calm,-,N/A,,Overcast,0,2013-01-19 23:55:00
6:55 PM,55.2,45.1,69,30.27,10.0,NNE,3.5,-,N/A,,Overcast,30,2013-01-20 00:55:00
7:55 PM,51.6,45.3,79,30.30,10.0,Calm,Calm,-,N/A,,Clear,0,2013-01-20 01:55:00
8:55 PM,47.5,43.9,87,30.28,10.0,East,3.5,-,N/A,,Scattered Clouds,80,2013-01-20 02:55:00
9:55 PM,45.1,42.6,91,30.25,10.0,Calm,Calm,-,N/A,,Partly Cloudy,0,2013-01-20 03:55:00
10:55 PM,43.9,41.5,91,30.25,10.0,NW,4.6,-,N/A,,Partly Cloudy,320,2013-01-20 04:55:00
11:55 PM,46.4,44.1,92,30.26,10.0,WNW,3.5,-,N/A,,Overcast,290,2013-01-20 05:55:00